User: anonymous   Login
Location: D�derode
(51.8092°N, 10.1065°E)
Time: 17:25:11
(UTC+00:00)
Language:

NOSS 3-3 (C) - Orbit

View from above orbital plane
View from above orbital plane
View from above satellite
View from above satellite

Ground track
Ground track

The orbit data is extracted from the following two-line orbital elements,

1 28541U 05004C   21126.06598184 0.00000000  00000-0  00000-0 0    05
2 28541  63.4222 168.3850 0395783 358.6524   1.2179 13.40813770    04
Epoch (UTC): 06 May 2021 01:35:00
Eccentricity: 0.0395783
inclination: 63.4222°
perigee height: 810 km
apogee height: 1402 km
right ascension of ascending node: 168.3850°
argument of perigee: 358.6524°
revolutions per day: 13.40813770
mean anomaly at epoch: 1.2179°
orbit number at epoch: 0

The dashed part of the orbit path shows where the satellite is in the earth's shadow,  

DLR